Flag for Canada Weather past 2 weeks in Chatham-Kent, Ontario, Canada

Now
61 °F

Cool.


Feels Like: 61 °F
Forecast: 59 / 72 °F
Wind: 7 mph from Northwest

Location: Erieau

Current Time: Jul 24, 2014 at 12:41:40 AM

Latest Report: Jul 24, 2014 at 12:00 AM


Visibility: N/A

Pressure: 30.05 "Hg

Humidity: 81%

Dew point: 55 °F

Location of Chatham-KentLocation

Historic Weather in Chatham-Kent — Graph

°F

Chatham-Kent temperature yesterday

Maximum temperature yesterday: 77 °F (at 2:00 AM)
Minimum temperature yesterday: 61 °F (at 11:00 PM)
Average temperature yesterday: 68 °F

Past Weeks' High & Low Weather Summary

 TemperatureHumidityPressure
High80 °F (Jul 14, 5:00 PM)100% (Jul 21, 4:00 AM)30.24 "Hg (Jul 21, 4:00 AM)
Low57 °F (Jul 16, 7:00 AM)38% (Jul 17, 1:00 PM)29.66 "Hg (Jul 15, 5:00 AM)
Average69 °F77%30.01 "Hg
* Reported Midnight between Jul 8 and Jul 9 — Jul 23 11:00 PM, Chatham-Kent, Weather by CustomWeather, © 2014

Note: Actual official high and low records may vary slightly from our data, if they occured in-between our weather recording intervals... More about our weather records

Advertising

Chatham-Kent weather history for previous 24 hours

 ConditionsComfort  
Time TempWeatherWind HumidityBarometerVisibility
11:00 PM
Jul 23
61 °FCool.6 mph80%30.06 "HgN/A
10:00 PM62 °FCool.6 mph73%30.05 "HgN/A
9:00 PM63 °FMild.5 mph72%30.04 "HgN/A
8:00 PM66 °FMild.3 mph67%30.03 "HgN/A
7:00 PM67 °FMild.7 mph66%30.01 "HgN/A
6:00 PM65 °FMild.8 mph70%30.01 "HgN/A
5:00 PM67 °FMild.7 mph68%30.01 "HgN/A
4:00 PM66 °FMild.6 mph72%30.02 "HgN/A
3:00 PM67 °FMild.3 mph70%30.02 "HgN/A
2:00 PM67 °FMild.5 mph72%30.01 "HgN/A
1:00 PM67 °FMild.8 mph75%29.99 "HgN/A
12:00 PM67 °FMild.5 mph77%29.97 "HgN/A
11:00 AM66 °FMild.7 mph82%29.96 "HgN/A
10:00 AM67 °FMild.5 mph79%29.94 "HgN/A
9:00 AM67 °FMild.3 mph86%29.93 "HgN/A
8:00 AM68 °FMild.6 mph86%29.93 "HgN/A
7:00 AM73 °FMild.8 mph93%29.90 "HgN/A
6:00 AM74 °FMild.7 mph91%29.91 "HgN/A
5:00 AM74 °FMild.8 mph93%29.87 "HgN/A
4:00 AM71 °FMild.8 mph99%29.93 "HgN/A
2:00 AM77 °FMild.9 mph83%29.91 "HgN/A
1:00 AM77 °FMild.2 mph82%29.93 "HgN/A
12:00 AM76 °FMild.2 mph89%29.93 "HgN/A
Weather by CustomWeather, © 2014

See weather overviewHow to use our weather pages